SCP
0 0 0 0 0 0 0 0 0 0 0 0 0 0 0 0 0 0 0 0 0 0 0 0 0 0 0 0 0 0 0 0 0 0 0 0 0 0 0 0 0 0 0 0
0 0 0 0 0 0 0 0 0 0 0 0 0 0 0 0 0 0 0 0 0 0 0 0 0 0 0 0 0 0 0 0 0 0 0 0 0 0 0 0 0 0 0 0
0 0 0 0 0 0 0 0 0 0 0 0 0 0 0 0 0 0 0 0 0 0 0 0 0 0 0 0 0 0 0 0 0 0 0 0 0 0 0 0 0 0 0 0
0 0 0 0 0 0 0 0 0 0 0 0 0 0 0 0 0 0 0 0 0 0 0 0 0 0 0 0 0 0 0 0 0 0 0 0 0 0 0 0 0 0 0 0
0 0 0 0 0 0 0 0 0 0 0 0 0 0 0 0 0 0 0 0 0 0 0 0 0 0 0 0 0 0 0 0 0 0 0 0 0 0 0 0 0 0 0 0
0 0 0 0 0 0 0 0 0 0 0 0 0 0 0 0 0 0 0 0 0 0 0 0 0 0 0 0 0 0 0 0 0 0 0 0 0 0 0 0 0 0 0 0
0 0 0 0 0 0 0 0 0 0 0 0 0 0 0 0 0 0 0 0 0 0 0 0 0 0 0 0 0 0 0 0 0 0 0 0 0 0 0 0 0 0 0 0
0 0 0 0 0 0 0 0 0 0 0 0 0 0 0 0 0 0 -0 -0 -0 -0 -0 0 0 0 0 0 0 0 0 0 0 0 0 0 0 0 0 -0 0 0 0 0
0 0 0 0 0 0 0 0 0 0 0 0 0 0 0 0 0 0 0 -0 -0 -0 -0 0 0 0 0 0 0 0 0 0 0 0 0 0 0 0 0 0 0 0 0 0
0 0 0 0 0 0 0 0 0 0 0 0 0 0 0 0 0 0 0 -0 -0 -0 0 0 0 0 0 0 0 0 0 0 0 0 0 0 0 0 0 0 0 0 0 0
0 0 0 0 0 0 0 0 0 0 0 0 0 0 0 0 0 0 0 -0 -0 0 0 0 0 0 0 0 0 0 -0 -0 0 0 0 0 0 0 0 0 0 0 0 0
0 0 0 0 0 0 0 0 0 0 0 0 0 0 0 0 0 0 0 0 0 0 0 0 0 0 0 0 0 -0 -0 -0 0 0 0 0 0 0 0 0 0 0 0 0
0 0 0 0 0 0 0 0 0 0 0 0 0 0 0 0 0 0 0 0 0 0 0 0 0 0 0 0 0 0 0 0 0 0 0 0 0 0 0 0 0 0 0 0
0 0 0 0 0 0 0 0 0 0 0 -0 -0 0 0 0 0 0 0 0 0 0 0 0 0 0 0 0 0 0 0 0 0 0 0 0 0 0 0 0 0 0 0 0
0 0 0 0 0 0 0 0 0 0 0 0 -0 -0 0 0 0 0 0 0 0 0 0 0 0 0 0 0 0 0 0 0 0 0 0 0 0 0 0 0 0 0 0 0
0 0 0 0 0 0 0 0 0 0 0 0 0 0 0 0 0 0 0 0 0 0 0 0 0 0 0 0 0 0 0 0 0 0 0 0 0 0 0 0 0 0 0 0
0 0 0 0 0 0 0 0 0 0 0 0 0 0 0 0 0 0 0 0 0 0 0 0 0 0 0 0 0 0 0 0 0 0 0 0 0 0 0 0 0 0 0 0
-0 -0 -0 0 0 0 0 0 0 0 0 0 0 0 0 0 0 0 0 0 0 0 0 0 0 0 0 0 0 0 0 0 0 0 0 0 0 0 0 0 0 0 0 0
0 0 0 0 0 0 0 0 0 0 0 0 0 0 0 0 0 0 0 0 0 0 0 0 0 0 0 0 0 0 0 0 0 0 0 0 0 0 0 0 0 0 0 0
0 0 0 0 0 0 0 0 0 0 0 0 0 0 0 0 0 0 0 0 0 0 0 0 0 0 0 0 0 0 0 0 0 0 0 0 0 0 0 0 0 0 0 0
0 0 0 0 0 0 0 0 0 0 0 0 0 0 0 0 0 0 0 0 0 0 0 0 0 0 0 0 0 0 0 0 0 0 0 0 0 0 0 0 0 0 0 0
0 0 0 0 0 0 0 0 0 0 0 0 0 0 0 0 0 0 0 0 0 0 0 0 0 0 0 0 0 0 0 0 0 0 0 0 0 0 0 0 0 0 0 0
0 0 0 0 0 0 0 0 0 0 0 0 0 0 0 0 0 0 0 0 0 0 0 0 0 0 0 0 0 0 0 0 0 0 0 0 0 0 0 0 0 0 0 0
0 0 0 0 0 0 0 0 0 0 0 0 0 0 0 0 0 0 0 0 0 0 0 0 0 0 0 0 0 0 0 0 0 0 0 0 0 0 0 0 0 0 0 0
0 0 0 0 0 0 0 0 0 0 0 0 0 0 0 0 0 0 0 0 0 0 0 0 0 0 0 0 0 0 0 0 0 0 0 0 0 0 0 0 0 0 0 0
0 0 0 0 0 0 0 0 0 0 0 0 0 0 0 0 0 0 0 0 0 0 0 0 0 0 0 0 0 0 0 0 0 0 0 0 0 0 0 0 0 0 0 0
0 0 0 0 0 0 0 0 0 0 0 0 0 0 0 0 0 0 0 0 0 0 0 0 0 0 0 0 0 0 0 0 0 0 0 0 0 0 0 0 0 0 0 0
Wind_Speed
5 4 4 7 9 10 12 10 10 9 10 8 6 5 3 3 3 3 3 3 4 4 5 4 3 3 3 3 3 3 3 3 4 4 4 4 5 5 5 5 6 6 6 7
4 4 5 8 10 13 14 13 13 12 12 6 4 2 2 3 3 3 3 4 5 5 5 5 4 4 4 4 3 3 3 4 4 4 4 4 4 5 5 5 5 5 6 6
4 2 3 9 9 10 9 9 11 12 8 2 2 2 2 3 3 3 4 4 5 5 5 5 5 5 5 4 4 3 4 4 4 4 4 4 4 5 5 5 5 5 6 6
2 3 8 1 1 4 7 6 6 5 3 3 2 1 2 2 2 3 4 4 5 5 5 5 5 5 5 4 4 4 4 4 4 4 4 4 4 4 5 4 5 5 6 6
4 5 6 3 1 2 4 5 5 6 4 2 1 0 1 0 2 3 4 4 4 5 5 5 5 4 4 4 4 4 4 4 4 4 4 4 4 5 5 4 5 5 5 6
4 5 5 1 1 1 3 4 2 4 3 3 2 3 0 1 2 3 3 3 4 4 5 5 5 4 4 4 4 5 5 5 5 5 4 5 5 5 5 4 4 4 5 5
6 5 4 2 1 2 4 1 1 2 3 3 3 2 1 2 2 2 3 3 4 4 4 4 5 4 4 4 5 5 5 5 5 5 5 5 5 4 4 4 4 4 5 5
5 6 5 1 2 3 2 2 1 1 2 2 1 1 1 2 2 3 3 3 4 4 4 5 5 4 5 5 5 5 5 5 5 5 4 3 4 4 4 4 4 5 5 5
4 3 2 1 2 3 3 3 2 2 1 1 1 1 2 2 3 3 3 3 3 4 5 5 5 4 5 6 6 5 5 5 5 5 4 4 4 4 4 3 3 4 4 4
3 4 4 3 4 4 4 3 2 1 1 1 1 1 2 2 3 3 3 3 4 4 5 5 5 5 5 6 5 5 5 5 4 4 4 4 3 3 3 4 4 4 4 4
4 5 4 3 3 3 2 1 0 0 0 1 1 1 2 3 3 3 3 3 3 4 5 5 5 5 5 5 5 5 5 5 5 4 4 4 3 3 4 4 4 5 4 4
3 3 3 3 3 2 2 2 1 1 0 0 1 2 2 3 3 3 4 4 4 4 5 6 6 6 6 5 5 5 5 5 4 4 3 3 4 4 4 4 6 7 7 7
4 4 3 3 2 2 2 2 2 1 1 1 2 2 2 3 3 4 4 4 4 5 5 6 6 6 6 5 5 5 5 5 4 4 3 3 3 4 4 4 5 6 6 6
3 3 2 2 2 2 2 2 2 2 2 2 2 2 2 3 4 4 4 4 4 5 5 6 6 6 6 6 5 5 5 5 4 3 3 3 3 4 4 4 5 4 5 5
3 2 1 1 2 2 2 2 2 2 3 3 3 3 3 4 4 5 5 4 4 4 5 5 5 6 6 5 5 5 4 3 3 3 3 3 3 3 3 4 4 4 4 4
3 1 1 1 2 2 2 2 2 3 3 4 3 4 4 4 5 5 4 4 4 5 5 5 6 6 6 5 5 4 3 4 4 3 3 3 3 3 3 3 3 3 4 4
2 2 2 3 3 3 3 3 3 4 4 4 4 4 4 4 4 4 4 4 4 5 5 5 6 6 5 5 5 3 3 3 4 3 3 2 2 3 3 3 3 3 3 3
3 3 3 4 4 4 4 4 3 4 4 4 4 4 4 4 4 5 5 5 4 5 5 5 5 5 5 5 4 3 2 2 2 2 2 2 3 3 2 3 3 3 3 3
3 3 3 3 3 3 3 4 4 4 4 4 3 4 4 4 4 4 4 4 5 5 5 5 7 6 5 4 4 2 2 2 2 2 2 3 3 2 2 2 2 2 2 2
4 4 3 3 3 3 3 4 4 4 4 4 3 3 4 4 4 4 4 4 4 4 6 6 6 5 4 3 4 2 2 2 2 2 2 2 2 2 2 2 2 2 2 2
4 4 4 4 4 4 4 4 4 4 4 4 3 3 4 4 4 4 4 4 4 5 5 6 4 3 3 3 3 2 2 2 2 2 2 2 2 2 2 2 2 2 2 2
4 4 4 4 4 4 4 4 3 3 4 3 3 3 3 4 4 4 4 3 4 7 5 3 3 3 4 4 2 2 2 2 2 2 2 2 2 2 2 2 2 2 2 2
4 4 4 4 4 4 4 4 4 3 3 4 4 4 4 4 3 3 4 3 4 6 5 3 4 5 5 3 2 2 2 2 2 2 2 2 2 2 2 2 2 2 2 2
4 4 4 4 3 3 4 5 4 4 4 4 4 4 4 3 3 3 3 5 6 6 4 4 5 6 5 2 2 2 2 2 2 2 2 2 2 1 2 2 2 2 2 3
3 3 3 3 3 3 4 4 4 4 4 3 4 4 3 3 3 4 4 4 5 5 3 4 6 6 4 2 2 2 2 2 2 2 2 1 1 1 1 2 2 2 2 2
3 3 3 3 3 3 3 3 3 3 3 3 4 4 3 3 3 3 3 4 4 4 3 3 3 4 2 2 2 2 2 2 2 2 2 1 1 1 1 2 2 2 2 2
3 2 2 3 3 3 3 3 3 3 3 3 4 4 4 4 3 3 4 3 3 3 3 3 2 2 2 2 2 2 2 2 2 1 1 1 1 1 2 2 2 2 2 2
Wind_Direction
256 259 232 235 225 214 219 228 235 242 246 254 263 279 301 316 333 339 334 334 335 335 338 334 330 327 325 313 310 309 298 289 287 290 292 292 288 290 292 288 284 284 285 287
242 244 250 258 243 231 231 232 237 250 259 260 254 266 286 302 318 323 331 335 336 336 335 331 323 320 318 309 308 306 296 291 293 296 298 293 293 294 293 288 285 287 287 286
231 227 257 249 238 226 223 223 226 238 244 220 240 252 287 312 320 326 329 333 332 331 329 328 325 316 310 307 304 299 296 294 294 298 297 295 296 298 296 293 290 288 286 284
211 201 231 246 11 226 220 230 230 239 246 238 248 290 306 310 314 328 331 329 328 329 331 329 324 322 321 316 307 304 303 302 304 301 296 297 299 299 300 297 290 286 288 291
202 225 256 262 273 224 225 247 235 228 230 220 146 225 236 351 326 330 331 330 329 331 330 327 329 331 329 325 323 319 314 312 307 300 293 295 297 299 303 303 296 294 294 292
204 224 238 261 9 292 240 244 199 200 198 191 211 242 219 25 347 337 338 339 334 333 333 332 334 334 329 326 326 324 321 315 307 299 292 291 296 300 300 298 298 298 294 291
219 232 259 299 300 206 220 262 130 197 196 200 239 291 329 322 319 324 334 343 338 328 330 331 330 327 320 320 320 320 318 312 309 305 300 297 300 300 300 300 298 298 300 300
205 220 241 97 174 215 314 344 286 225 214 213 260 284 276 298 313 322 330 341 339 334 333 334 334 330 321 320 319 318 314 308 308 309 308 302 300 304 304 302 299 299 300 305
213 241 342 290 262 301 305 289 288 257 218 196 212 259 294 305 316 324 327 334 333 331 327 330 335 330 321 321 323 319 314 309 310 312 310 305 303 305 308 305 298 300 303 305
238 264 287 301 299 305 299 289 290 265 211 181 215 282 301 310 317 319 324 329 330 327 325 328 334 329 322 320 319 316 313 313 314 313 312 312 310 305 303 302 299 299 302 303
248 276 288 305 308 313 329 330 313 22 140 195 212 262 288 299 308 313 318 324 323 318 316 319 325 325 326 323 321 314 311 309 310 308 307 309 310 313 307 304 303 299 297 297
271 293 284 310 335 342 353 354 344 339 334 309 280 284 295 300 306 307 309 312 310 309 311 315 318 318 322 322 315 308 304 305 304 304 305 305 309 316 327 307 317 310 304 298
285 309 300 299 333 358 356 356 359 354 329 314 310 297 293 298 302 303 304 305 305 308 309 309 310 312 318 319 311 303 296 297 298 298 298 297 301 303 311 324 326 322 318 314
302 289 273 296 323 351 4 7 12 4 347 326 316 310 300 300 301 303 304 307 307 306 304 304 306 309 315 315 309 302 297 294 294 296 300 299 298 301 304 310 318 323 332 331
340 318 292 331 1 8 8 10 0 344 341 337 330 318 309 303 304 307 308 307 304 302 301 302 304 308 314 312 306 301 297 294 295 296 296 295 297 299 301 304 305 310 318 329
328 339 336 328 330 340 348 344 330 321 322 319 317 314 310 303 300 303 307 303 299 299 302 301 301 305 310 307 304 299 297 301 301 297 294 294 297 299 302 304 305 307 312 318
327 324 325 315 306 306 308 306 301 300 302 303 306 308 305 302 303 308 312 309 299 293 296 298 300 306 307 304 301 297 298 301 302 300 299 300 301 299 300 301 303 307 311 328
309 299 296 294 297 298 303 309 307 306 304 304 305 301 298 296 299 305 307 309 308 303 304 303 304 307 305 306 304 298 295 296 298 300 303 302 301 296 294 294 297 301 311 329
334 323 324 323 315 309 308 312 313 311 310 307 302 298 296 295 294 297 301 304 306 309 315 314 313 311 308 311 313 300 296 302 307 307 305 304 303 298 298 301 305 313 321 330
348 347 344 341 337 325 316 318 317 313 312 307 299 298 301 305 306 303 302 299 300 302 306 308 309 309 312 312 318 307 305 305 303 302 305 303 308 314 318 319 322 330 332 338
344 342 341 340 338 334 325 318 313 313 314 312 304 301 304 309 311 306 302 303 314 319 315 315 317 318 323 331 331 321 313 310 307 303 304 309 316 320 324 331 337 337 338 345
337 337 337 336 335 333 332 327 320 316 319 322 324 318 313 313 315 312 304 298 311 322 325 324 332 343 347 344 335 330 326 323 321 321 324 327 328 330 339 345 344 344 347 350
334 334 335 335 331 326 328 332 331 325 325 326 325 321 317 313 313 311 317 323 322 330 334 337 347 355 356 351 343 340 341 339 337 339 340 341 341 341 347 350 353 355 356 358
337 338 335 334 335 338 338 338 338 335 331 325 324 319 315 315 320 318 310 317 331 336 341 347 353 357 355 352 348 347 349 350 350 350 349 350 352 355 354 354 356 359 5 8
335 333 335 338 340 335 329 328 332 337 341 339 338 335 329 318 311 316 320 324 333 342 343 348 355 357 356 353 353 350 351 1 0 355 349 352 1 2 3 5 6 5 5 6
330 329 327 323 316 315 317 322 326 330 333 333 335 334 332 326 317 314 319 330 335 342 342 340 344 350 353 354 352 351 356 355 356 354 353 358 2 2 9 15 12 7 5 5
334 335 332 333 335 330 324 322 321 322 323 320 320 323 325 324 324 328 330 333 339 343 344 344 346 348 350 350 350 355 357 359 357 352 353 357 1 9 12 6 2 2 2 7